Weather History for Marshfield, WI

Change the Weather History Date:

Friday, October 3, 2014

  Actual Average Record
Temperature  
Mean Temperature 46 °F -  
Max Temperature 55 °F 65 °F 84 °F (1997)
Min Temperature 37 °F 40 °F 21 °F (1987)
Degree Days  
Heating Degree Days 19    
Moisture  
Dew Point 43 °F    
Average Humidity 86    
Maximum Humidity 93    
Minimum Humidity 76    
Precipitation  
Precipitation 0.01 in - - ()
Sea Level Pressure  
Sea Level Pressure 29.63 in    
Wind  
Wind Speed 16 mph (WNW)    
Max Wind Speed 25 mph    
Max Gust Speed 36 mph    
Visibility 9 miles    
Events Rain    
Averages and records for this station are not official NWS values.
T = Trace of Precipitation, MM = Missing Value Source: NWS Daily Summary

Daily Weather History Graph

Daily Weather History Graph

Search for Another Location

Airport:

Trip Planner

Search our weather history database for the weather conditions in past years. The results will help you decide how hot, cold, wet, or windy it might be!

Date:

Astronomy

Oct. 03, 2014 Rise Set
Actual Time 7:01 AM CDT 6:37 PM CDT
Civil Twilight 6:32 AM CDT 7:06 PM CDT
Nautical Twilight 5:58 AM CDT 7:40 PM CDT
Astronomical Twilight 5:23 AM CDT 8:14 PM CDT
Moon 3:42 PM CDT (10/3) 1:09 AM CDT (10/3)
Length of Visible Light 12h 34m
Length of Day
11h 36m
Waxing Gibbous, 71% of the Moon is Illuminated
Oct 3
Waxing Gibbous
Oct 8
Full
Oct 15
Last Quarter
Oct 23
New
Oct 30
First Quarter

Hourly Weather History & Observations

Time (CDT) Temp. Windchill Dew Point Humidity Pressure Visibility Wind Dir Wind Speed Gust Speed Precip Events Conditions
12:54 AM 55.0 °F - 51.1 °F 86% 29.60 in 10.0 mi NW 12.7 mph - 0.00 in   Overcast
1:28 AM 54.0 °F - 52.0 °F 93% 29.61 in 10.0 mi NW 12.7 mph - 0.00 in Rain Light Rain
1:54 AM 54.0 °F - 52.0 °F 93% 29.61 in 10.0 mi NW 13.8 mph - 0.00 in Rain Light Rain
2:00 AM 54.0 °F - 52.0 °F 93% 29.61 in 10.0 mi NW 16.1 mph - 0.00 in   Overcast
2:54 AM 54.0 °F - 51.1 °F 90% 29.60 in 10.0 mi NW 15.0 mph - 0.01 in Rain Light Rain
3:28 AM 53.1 °F - 51.1 °F 93% 29.58 in 10.0 mi NW 15.0 mph - 0.00 in Rain Light Rain
3:38 AM 53.1 °F - 50.0 °F 89% 29.58 in 10.0 mi NW 15.0 mph - 0.00 in   Overcast
3:54 AM 53.1 °F - 50.0 °F 89% 29.58 in 10.0 mi NW 13.8 mph - 0.00 in   Overcast
4:47 AM 52.0 °F - 48.9 °F 89% 29.59 in 10.0 mi NW 15.0 mph 23.0 mph N/A   Overcast
4:54 AM 52.0 °F - 48.9 °F 89% 29.59 in 10.0 mi NW 15.0 mph - N/A   Overcast
5:06 AM 52.0 °F - 48.9 °F 89% 29.58 in 10.0 mi WNW 13.8 mph - N/A   Overcast
5:24 AM 52.0 °F - 48.9 °F 89% 29.58 in 10.0 mi WNW 13.8 mph - N/A   Overcast
5:31 AM 52.0 °F - 48.9 °F 89% 29.58 in 10.0 mi WNW 18.4 mph - N/A   Mostly Cloudy
5:49 AM 51.8 °F - 48.2 °F 88% 29.58 in 10.0 mi WNW 16.1 mph - N/A   Mostly Cloudy
5:54 AM 52.0 °F - 48.9 °F 89% 29.59 in 10.0 mi WNW 15.0 mph 21.9 mph N/A   Mostly Cloudy
6:05 AM 52.0 °F - 48.0 °F 86% 29.58 in 10.0 mi NW 13.8 mph - N/A   Scattered Clouds
6:13 AM 52.0 °F - 48.0 °F 86% 29.58 in 10.0 mi NW 11.5 mph 20.7 mph N/A   Mostly Cloudy
6:54 AM 51.1 °F - 48.0 °F 89% 29.58 in 10.0 mi NW 12.7 mph 23.0 mph N/A   Overcast
7:54 AM 51.1 °F - 48.0 °F 89% 29.57 in 10.0 mi WNW 11.5 mph - N/A   Overcast
8:54 AM 50.0 °F - 46.0 °F 86% 29.59 in 10.0 mi NW 23.0 mph 35.7 mph N/A   Overcast
9:11 AM 51.1 °F - 45.0 °F 80% 29.59 in 10.0 mi NW 21.9 mph 33.4 mph N/A   Overcast
9:54 AM 50.0 °F - 45.0 °F 83% 29.60 in 9.0 mi West 20.7 mph 29.9 mph 0.00 in Rain Light Rain
10:06 AM 48.0 °F - 45.0 °F 89% 29.60 in 7.0 mi West 20.7 mph 28.8 mph 0.00 in Rain Light Rain
10:31 AM 46.9 °F - 44.1 °F 90% 29.60 in 5.0 mi WNW 16.1 mph 25.3 mph 0.00 in   Overcast
10:54 AM 46.9 °F - 44.1 °F 90% 29.62 in 4.0 mi West 15.0 mph 24.2 mph 0.00 in   Overcast
11:52 AM 46.4 °F 38.7 °F 42.8 °F 87% 29.63 in 5.0 mi West 20.7 mph 33.4 mph 0.00 in Rain Light Rain
11:54 AM 46.0 °F 38.0 °F 43.0 °F 89% 29.64 in 6.0 mi West 21.9 mph 31.1 mph 0.00 in   Overcast
12:29 PM 46.9 °F - 42.1 °F 83% 29.63 in 10.0 mi West 15.0 mph 27.6 mph N/A   Overcast
12:54 PM 46.0 °F 38.8 °F 41.0 °F 83% 29.65 in 10.0 mi WNW 18.4 mph 29.9 mph N/A   Overcast
1:13 PM 45.0 °F 36.0 °F 41.0 °F 86% 29.64 in 10.0 mi WNW 25.3 mph 32.2 mph 0.00 in Rain Light Rain
1:22 PM 45.0 °F 36.2 °F 39.0 °F 80% 29.64 in 10.0 mi WNW 24.2 mph 32.2 mph 0.00 in   Overcast
1:54 PM 44.1 °F 35.9 °F 39.0 °F 82% 29.66 in 10.0 mi WNW 19.6 mph 29.9 mph 0.00 in Rain Light Rain
2:54 PM 45.0 °F 36.0 °F 37.9 °F 76% 29.66 in 10.0 mi WNW 25.3 mph 35.7 mph 0.00 in   Overcast
3:07 PM 44.1 °F 35.9 °F 37.9 °F 79% 29.65 in 8.0 mi West 19.6 mph 27.6 mph 0.00 in Rain Light Rain
3:54 PM 42.1 °F 33.9 °F 37.9 °F 85% 29.69 in 7.0 mi WNW 17.3 mph 26.5 mph 0.00 in Rain Light Rain
4:35 PM 43.0 °F 35.4 °F 36.0 °F 76% 29.68 in 10.0 mi WNW 16.1 mph 32.2 mph 0.00 in   Overcast
4:54 PM 42.1 °F 33.3 °F 36.0 °F 79% 29.70 in 10.0 mi WNW 19.6 mph 26.5 mph 0.00 in   Overcast
5:54 PM 41.0 °F 31.9 °F 35.1 °F 79% 29.72 in 10.0 mi WNW 19.6 mph 35.7 mph 0.00 in   Overcast
6:22 PM 39.9 °F 31.1 °F 36.0 °F 86% 29.70 in 10.0 mi WNW 17.3 mph 25.3 mph 0.00 in Rain Light Rain
6:54 PM 39.9 °F 32.5 °F 36.0 °F 86% 29.73 in 10.0 mi WNW 12.7 mph - 0.00 in Rain Light Rain
7:54 PM 39.0 °F 29.3 °F 35.1 °F 86% 29.73 in 10.0 mi WNW 19.6 mph 28.8 mph 0.00 in Rain Light Rain
8:54 PM 37.9 °F 30.0 °F 35.1 °F 89% 29.73 in 10.0 mi West 12.7 mph 21.9 mph 0.00 in   Overcast
9:24 PM 37.9 °F 30.0 °F 34.0 °F 86% 29.69 in 10.0 mi WNW 12.7 mph 21.9 mph N/A   Mostly Cloudy
9:54 PM 37.9 °F 30.0 °F 33.1 °F 83% 29.70 in 10.0 mi West 12.7 mph - N/A   Scattered Clouds
10:38 PM 37.9 °F 30.0 °F 33.1 °F 83% 29.66 in 10.0 mi West 12.7 mph 21.9 mph N/A   Mostly Cloudy
10:54 PM 37.9 °F 28.9 °F 33.1 °F 83% 29.68 in 10.0 mi West 16.1 mph 23.0 mph N/A   Overcast
11:35 PM 37.0 °F 28.1 °F 34.0 °F 89% 29.63 in 10.0 mi West 15.0 mph - 0.00 in Rain Light Rain
11:54 PM 37.0 °F 28.9 °F 34.0 °F 89% 29.66 in 10.0 mi West 12.7 mph 24.2 mph 0.00 in Rain Light Rain